When you browse on this site, cookies collect data to enhance your experience and personalize the content and advertising you see.
Visit our Privacy Policy to learn more. By continuing to use the site, you agree to this use of cookies and data.
  • In Lithuania
  • List of Countries
  • For 7 days
  • Water Temperature
  • Weather Map
  • Weather Widgets
  • user-avatar
    Login

    Hourly Weather Lankaran

    Today, 18 November, Monday

    Time Temperature Precipitation Wind Pressure Humidity
    00:00 0°C° 0 mm 1 mps 638 mmHg 81%
    01:00 0°C° 0 mm 1 mps 638 mmHg 82%
    02:00 -1°C° 0 mm 1 mps 637 mmHg 83%
    03:00 -1°C° 0 mm 1 mps 637 mmHg 84%
    04:00 -1°C° 0.3 mm 1 mps 637 mmHg 85%
    05:00 -1°C° 0.3 mm 1 mps 637 mmHg 87%
    06:00 -1°C° 0.3 mm 1 mps 637 mmHg 88%
    07:00 0°C° 0.1 mm 1 mps 637 mmHg 86%
    08:00 0°C° 0.1 mm 1 mps 638 mmHg 84%
    09:00 +1°C° 0.1 mm 1 mps 638 mmHg 81%
    10:00 -1°C° 0.3 mm 2 mps 637 mmHg 82%
    11:00 +1°C° 0.3 mm 2 mps 637 mmHg 82%
    12:00 +1°C° 0.3 mm 2 mps 637 mmHg 82%
    13:00 +1°C° 0.3 mm 2 mps 637 mmHg 81%
    14:00 +1°C° 0.3 mm 2 mps 637 mmHg 81%
    15:00 +1°C° 0.3 mm 2 mps 637 mmHg 81%
    16:00 +1°C° 0.1 mm 2 mps 637 mmHg 83%
    17:00 -1°C° 0.1 mm 2 mps 637 mmHg 85%
    18:00 +1°C° 0.1 mm 1 mps 637 mmHg 86%
    19:00 +1°C° 0 mm 1 mps 636 mmHg 85%
    20:00 +1°C° 0 mm 1 mps 636 mmHg 83%
    21:00 +1°C° 0 mm 1 mps 636 mmHg 82%
    22:00 -2°C° 0.1 mm 2 mps 636 mmHg 84%
    23:00 -2°C° 0.1 mm 2 mps 636 mmHg 87%

    Tomorrow, 19 November, Tuesday

    Time Temperature Precipitation Wind Pressure Humidity
    00:00 -2°C° 0.1 mm 2 mps 636 mmHg 90%
    01:00 -2°C° 0.3 mm 2 mps 636 mmHg 90%
    02:00 -2°C° 0.3 mm 2 mps 636 mmHg 91%
    03:00 -2°C° 0.3 mm 2 mps 636 mmHg 91%
    04:00 -2°C° 0.2 mm 2 mps 636 mmHg 91%
    05:00 -2°C° 0.2 mm 2 mps 636 mmHg 90%
    06:00 -2°C° 0.2 mm 2 mps 636 mmHg 90%
    07:00 -1°C° 0.1 mm 2 mps 636 mmHg 88%
    08:00 -1°C° 0.1 mm 2 mps 636 mmHg 86%
    09:00 +2°C° 0.1 mm 1 mps 637 mmHg 85%
    10:00 +1°C° 0.1 mm 2 mps 636 mmHg 84%
    11:00 +1°C° 0.1 mm 2 mps 636 mmHg 83%
    12:00 +2°C° 0.1 mm 2 mps 636 mmHg 83%
    13:00 +1°C° 0.1 mm 2 mps 636 mmHg 84%
    14:00 +1°C° 0.1 mm 2 mps 636 mmHg 86%
    15:00 +1°C° 0.1 mm 2 mps 635 mmHg 87%
    16:00 +1°C° 0.3 mm 2 mps 636 mmHg 89%
    17:00 +1°C° 0.3 mm 2 mps 636 mmHg 90%
    18:00 -1°C° 0.3 mm 2 mps 636 mmHg 92%
    19:00 -1°C° 0.3 mm 2 mps 636 mmHg 92%
    20:00 -1°C° 0.3 mm 2 mps 636 mmHg 92%
    21:00 -1°C° 0.3 mm 2 mps 636 mmHg 93%
    22:00 -1°C° 0.1 mm 2 mps 636 mmHg 92%
    23:00 -1°C° 0.1 mm 2 mps 635 mmHg 91%

    Day after tomorrow, 20 November, Wednesday

    Time Temperature Precipitation Wind Pressure Humidity
    00:00 -1°C° 0.1 mm 2 mps 635 mmHg 90%
    01:00 -1°C° 0 mm 2 mps 635 mmHg 88%
    02:00 -1°C° 0 mm 2 mps 635 mmHg 87%
    03:00 -1°C° 0 mm 2 mps 635 mmHg 85%
    04:00 -1°C° 0 mm 2 mps 635 mmHg 84%
    05:00 -2°C° 0 mm 2 mps 635 mmHg 84%
    06:00 0°C° 0 mm 1 mps 634 mmHg 84%
    07:00 +1°C° 0 mm 1 mps 635 mmHg 78%
    08:00 +2°C° 0 mm 1 mps 636 mmHg 73%
    09:00 +4°C° 0 mm 1 mps 636 mmHg 67%
    10:00 +4°C° 0 mm 1 mps 636 mmHg 67%
    11:00 +5°C° 0 mm 1 mps 636 mmHg 66%
    12:00 +5°C° 0 mm 1 mps 636 mmHg 65%
    13:00 +5°C° 0 mm 1 mps 636 mmHg 67%
    14:00 +5°C° 0 mm 1 mps 635 mmHg 68%
    15:00 +5°C° 0 mm 1 mps 635 mmHg 69%
    16:00 +4°C° 0 mm 1 mps 635 mmHg 73%
    17:00 +3°C° 0 mm 1 mps 635 mmHg 77%
    18:00 +1°C° 0 mm 1 mps 635 mmHg 81%
    19:00 +1°C° 0 mm 1 mps 634 mmHg 81%
    20:00 +1°C° 0 mm 1 mps 634 mmHg 81%
    21:00 0°C° 0 mm 1 mps 634 mmHg 81%
    22:00 0°C° 0 mm 1 mps 634 mmHg 80%
    23:00 0°C° 0 mm 1 mps 634 mmHg 79%

    21 November, Thursday

    Time Temperature Precipitation Wind Pressure Humidity
    00:00 0°C° 0 mm 1 mps 634 mmHg 78%
    01:00 0°C° 0 mm 1 mps 634 mmHg 78%
    02:00 0°C° 0 mm 1 mps 633 mmHg 78%
    03:00 0°C° 0 mm 1 mps 633 mmHg 79%
    04:00 0°C° 0 mm 1 mps 633 mmHg 81%
    05:00 0°C° 0 mm 1 mps 633 mmHg 83%
    06:00 0°C° 0 mm 1 mps 634 mmHg 86%
    07:00 +1°C° 0.1 mm 1 mps 634 mmHg 85%
    08:00 -1°C° 0.1 mm 2 mps 634 mmHg 84%
    09:00 +1°C° 0.1 mm 2 mps 635 mmHg 83%
    10:00 +1°C° 0.2 mm 2 mps 634 mmHg 84%
    11:00 +1°C° 0.2 mm 2 mps 634 mmHg 84%
    12:00 +2°C° 0.2 mm 2 mps 634 mmHg 85%
    13:00 +1°C° 0.3 mm 2 mps 634 mmHg 87%
    14:00 0°C° 0.3 mm 3 mps 634 mmHg 89%
    15:00 0°C° 0.3 mm 3 mps 634 mmHg 91%
    16:00 0°C° 0.8 mm 3 mps 634 mmHg 93%
    17:00 -1°C° 0.8 mm 3 mps 635 mmHg 95%
    18:00 -1°C° 0.8 mm 3 mps 635 mmHg 97%
    19:00 -1°C° 1 mm 3 mps 635 mmHg 96%
    20:00 -1°C° 1 mm 3 mps 636 mmHg 96%
    21:00 -1°C° 1 mm 3 mps 636 mmHg 96%
    22:00 -1°C° 1.2 mm 2 mps 636 mmHg 96%
    23:00 -2°C° 1.2 mm 2 mps 636 mmHg 96%

    22 November, Friday

    Time Temperature Precipitation Wind Pressure Humidity
    00:00 -2°C° 1.2 mm 2 mps 636 mmHg 96%
    01:00 -2°C° 1.3 mm 2 mps 637 mmHg 96%
    02:00 -2°C° 1.3 mm 3 mps 637 mmHg 97%
    03:00 -2°C° 1.3 mm 3 mps 637 mmHg 97%
    04:00 -2°C° 1.3 mm 3 mps 637 mmHg 97%
    05:00 -4°C° 1.3 mm 3 mps 637 mmHg 96%
    06:00 -4°C° 1.3 mm 3 mps 638 mmHg 96%
    07:00 -4°C° 1.7 mm 3 mps 638 mmHg 95%
    08:00 -4°C° 1.7 mm 3 mps 639 mmHg 95%
    09:00 -4°C° 1.7 mm 3 mps 639 mmHg 94%
    10:00 -4°C° 1.1 mm 3 mps 639 mmHg 93%
    11:00 -4°C° 1.1 mm 3 mps 639 mmHg 92%
    12:00 -4°C° 1.1 mm 3 mps 639 mmHg 92%
    13:00 -4°C° 0.6 mm 3 mps 639 mmHg 91%
    14:00 -4°C° 0.6 mm 3 mps 639 mmHg 91%
    15:00 -3°C° 0.6 mm 2 mps 639 mmHg 91%
    16:00 -3°C° 0.5 mm 2 mps 639 mmHg 92%
    17:00 -3°C° 0.5 mm 2 mps 639 mmHg 94%
    18:00 -3°C° 0.5 mm 2 mps 639 mmHg 95%
    19:00 -3°C° 0.6 mm 2 mps 639 mmHg 95%
    20:00 -3°C° 0.6 mm 2 mps 640 mmHg 95%
    21:00 -3°C° 0.6 mm 2 mps 640 mmHg 95%
    22:00 -1°C° 0.7 mm 1 mps 640 mmHg 95%
    23:00 -1°C° 0.7 mm 1 mps 640 mmHg 95%

    23 November, Saturday

    Time Temperature Precipitation Wind Pressure Humidity
    00:00 -1°C° 0.7 mm 1 mps 640 mmHg 95%
    01:00 -1°C° 0.5 mm 1 mps 639 mmHg 95%
    02:00 -1°C° 0.5 mm 1 mps 639 mmHg 95%
    03:00 -1°C° 0.5 mm 1 mps 639 mmHg 95%
    04:00 -1°C° 0.5 mm 1 mps 639 mmHg 95%
    05:00 -1°C° 0.5 mm 1 mps 639 mmHg 96%
    06:00 -1°C° 0.5 mm 1 mps 639 mmHg 96%
    07:00 -1°C° 0.5 mm 1 mps 639 mmHg 95%
    08:00 0°C° 0.5 mm 1 mps 639 mmHg 94%
    09:00 0°C° 0.5 mm 1 mps 640 mmHg 94%
    10:00 -2°C° 0.2 mm 2 mps 639 mmHg 92%
    11:00 -2°C° 0.2 mm 2 mps 639 mmHg 91%
    12:00 -2°C° 0.2 mm 2 mps 639 mmHg 90%
    13:00 -2°C° 0.2 mm 2 mps 638 mmHg 90%
    14:00 -2°C° 0.2 mm 2 mps 638 mmHg 91%
    15:00 -2°C° 0.2 mm 2 mps 638 mmHg 92%
    16:00 -2°C° 0.5 mm 2 mps 638 mmHg 93%
    17:00 0°C° 0.5 mm 1 mps 638 mmHg 94%
    18:00 0°C° 0.5 mm 1 mps 638 mmHg 96%
    19:00 0°C° 0.3 mm 1 mps 638 mmHg 95%
    20:00 0°C° 0.3 mm 1 mps 638 mmHg 95%
    21:00 0°C° 0.3 mm 1 mps 638 mmHg 95%
    22:00 0°C° 0 mm 1 mps 638 mmHg 93%
    23:00 -1°C° 0 mm 1 mps 637 mmHg 91%
    Show more